Time,TemperatureF,DewpointF,PressureIn,WindDirection,WindDirectionDegrees,WindSpeedMPH,WindSpeedGustMPH,Humidity,HourlyPrecipIn,Conditions,Clouds,dailyrainin,SoftwareType,DateUTC
2013-05-10 00:09:00,50.8,43.1,29.63,North,-999,-999.0,-999.0,74,-99.99,,,-99.99,tws,2013-05-10 06:09:00,
2013-05-10 00:19:00,50.7,43.1,29.63,North,-999,-999.0,-999.0,74,-99.99,,,-99.99,tws,2013-05-10 06:19:00,
2013-05-10 00:29:00,50.3,42.9,29.63,North,-999,-999.0,-999.0,75,-99.99,,,-99.99,tws,2013-05-10 06:29:00,
2013-05-10 00:39:00,50.1,42.6,29.63,North,-999,-999.0,-999.0,75,-99.99,,,-99.99,tws,2013-05-10 06:39:00,
2013-05-10 00:49:00,49.9,42.7,29.63,North,-999,-999.0,-999.0,75,-99.99,,,-99.99,tws,2013-05-10 06:49:00,
2013-05-10 00:59:00,49.9,42.5,29.63,North,-999,-999.0,-999.0,75,-99.99,,,-99.99,tws,2013-05-10 06:59:00,
2013-05-10 01:09:00,50.0,42.5,29.63,North,-999,-999.0,-999.0,75,-99.99,,,-99.99,tws,2013-05-10 07:09:00,
2013-05-10 01:19:00,50.0,42.3,29.62,North,-999,-999.0,-999.0,74,-99.99,,,-99.99,tws,2013-05-10 07:19:00,
2013-05-10 01:29:00,49.8,42.1,29.62,North,-999,-999.0,-999.0,74,-99.99,,,-99.99,tws,2013-05-10 07:29:00,
2013-05-10 01:39:00,49.9,42.1,29.62,North,-999,-999.0,-999.0,74,-99.99,,,-99.99,tws,2013-05-10 07:39:00,
2013-05-10 01:49:00,49.8,41.7,29.62,North,-999,-999.0,-999.0,73,-99.99,,,-99.99,tws,2013-05-10 07:49:00,
2013-05-10 01:59:00,49.6,41.6,29.62,North,-999,-999.0,-999.0,73,-99.99,,,-99.99,tws,2013-05-10 07:59:00,
2013-05-10 02:09:00,49.5,41.5,29.61,North,-999,-999.0,-999.0,73,-99.99,,,-99.99,tws,2013-05-10 08:09:00,
2013-05-10 02:19:00,49.4,41.3,29.61,North,-999,-999.0,-999.0,73,-99.99,,,-99.99,tws,2013-05-10 08:19:00,
2013-05-10 02:29:00,49.5,41.2,29.61,North,-999,-999.0,-999.0,73,-99.99,,,-99.99,tws,2013-05-10 08:29:00,
2013-05-10 02:39:00,49.4,41.0,29.61,North,-999,-999.0,-999.0,72,-99.99,,,-99.99,tws,2013-05-10 08:39:00,
2013-05-10 02:49:00,49.5,41.3,29.61,North,-999,-999.0,-999.0,73,-99.99,,,-99.99,tws,2013-05-10 08:49:00,
2013-05-10 02:59:00,49.6,42.2,29.62,North,-999,-999.0,-999.0,75,-99.99,,,-99.99,tws,2013-05-10 08:59:00,
2013-05-10 03:09:00,49.2,43.8,29.62,North,-999,-999.0,-999.0,81,-99.99,,,-99.99,tws,2013-05-10 09:09:00,
2013-05-10 03:19:00,48.2,45.3,29.62,North,-999,-999.0,-999.0,89,-99.99,,,-99.99,tws,2013-05-10 09:19:00,
2013-05-10 03:29:00,46.7,45.6,29.62,North,-999,-999.0,-999.0,95,-99.99,,,-99.99,tws,2013-05-10 09:29:00,
2013-05-10 03:39:00,47.1,46.3,29.62,North,-999,-999.0,-999.0,97,-99.99,,,-99.99,tws,2013-05-10 09:39:00,
2013-05-10 03:49:00,47.4,44.9,29.62,North,-999,-999.0,-999.0,90,-99.99,,,-99.99,tws,2013-05-10 09:49:00,
2013-05-10 03:59:00,47.9,44.5,29.62,North,-999,-999.0,-999.0,88,-99.99,,,-99.99,tws,2013-05-10 09:59:00,
2013-05-10 04:09:00,47.6,41.7,29.62,North,-999,-999.0,-999.0,79,-99.99,,,-99.99,tws,2013-05-10 10:09:00,
2013-05-10 04:19:00,47.5,41.1,29.62,North,-999,-999.0,-999.0,78,-99.99,,,-99.99,tws,2013-05-10 10:19:00,
2013-05-10 04:29:00,47.3,41.1,29.62,North,-999,-999.0,-999.0,78,-99.99,,,-99.99,tws,2013-05-10 10:29:00,
2013-05-10 04:39:00,47.5,41.5,29.62,North,-999,-999.0,-999.0,79,-99.99,,,-99.99,tws,2013-05-10 10:39:00,
2013-05-10 04:49:00,47.5,41.5,29.62,North,-999,-999.0,-999.0,79,-99.99,,,-99.99,tws,2013-05-10 10:49:00,
2013-05-10 04:59:00,47.0,41.3,29.62,North,-999,-999.0,-999.0,80,-99.99,,,-99.99,tws,2013-05-10 10:59:00,
2013-05-10 05:09:00,46.7,41.2,29.62,North,-999,-999.0,-999.0,80,-99.99,,,-99.99,tws,2013-05-10 11:09:00,
2013-05-10 05:19:00,46.8,40.7,29.61,North,-999,-999.0,-999.0,79,-99.99,,,-99.99,tws,2013-05-10 11:19:00,
2013-05-10 05:29:00,46.8,41.0,29.62,North,-999,-999.0,-999.0,80,-99.99,,,-99.99,tws,2013-05-10 11:29:00,
2013-05-10 05:39:00,47.2,41.1,29.62,North,-999,-999.0,-999.0,79,-99.99,,,-99.99,tws,2013-05-10 11:39:00,
2013-05-10 05:49:00,47.5,41.1,29.62,North,-999,-999.0,-999.0,78,-99.99,,,-99.99,tws,2013-05-10 11:49:00,
2013-05-10 05:59:00,47.8,41.2,29.62,North,-999,-999.0,-999.0,77,-99.99,,,-99.99,tws,2013-05-10 11:59:00,
2013-05-10 06:09:00,48.0,41.6,29.62,North,-999,-999.0,-999.0,78,-99.99,,,-99.99,tws,2013-05-10 12:09:00,
2013-05-10 06:19:00,48.0,41.6,29.63,North,-999,-999.0,-999.0,78,-99.99,,,-99.99,tws,2013-05-10 12:19:00,
2013-05-10 06:29:00,47.7,41.5,29.63,North,-999,-999.0,-999.0,78,-99.99,,,-99.99,tws,2013-05-10 12:29:00,
2013-05-10 06:39:00,47.9,41.8,29.64,North,-999,-999.0,-999.0,79,-99.99,,,-99.99,tws,2013-05-10 12:39:00,
2013-05-10 06:49:00,48.0,41.9,29.64,North,-999,-999.0,-999.0,79,-99.99,,,-99.99,tws,2013-05-10 12:49:00,
2013-05-10 06:59:00,48.1,42.1,29.64,North,-999,-999.0,-999.0,79,-99.99,,,-99.99,tws,2013-05-10 12:59:00,
2013-05-10 07:09:00,48.4,42.1,29.64,North,-999,-999.0,-999.0,78,-99.99,,,-99.99,tws,2013-05-10 13:09:00,
2013-05-10 07:19:00,49.0,42.3,29.64,North,-999,-999.0,-999.0,77,-99.99,,,-99.99,tws,2013-05-10 13:19:00,
2013-05-10 07:29:00,49.9,42.7,29.65,North,-999,-999.0,-999.0,75,-99.99,,,-99.99,tws,2013-05-10 13:29:00,
2013-05-10 07:39:00,51.1,43.4,29.65,North,-999,-999.0,-999.0,74,-99.99,,,-99.99,tws,2013-05-10 13:39:00,
2013-05-10 07:49:00,52.1,44.3,29.65,North,-999,-999.0,-999.0,74,-99.99,,,-99.99,tws,2013-05-10 13:49:00,
2013-05-10 07:59:00,53.1,45.1,29.65,North,-999,-999.0,-999.0,74,-99.99,,,-99.99,tws,2013-05-10 13:59:00,
2013-05-10 08:09:00,53.9,46.7,29.65,North,-999,-999.0,-999.0,76,-99.99,,,-99.99,tws,2013-05-10 14:09:00,
2013-05-10 08:19:00,54.5,47.8,29.65,North,-999,-999.0,-999.0,77,-99.99,,,-99.99,tws,2013-05-10 14:19:00,
2013-05-10 08:29:00,54.9,48.5,29.65,North,-999,-999.0,-999.0,78,-99.99,,,-99.99,tws,2013-05-10 14:29:00,
2013-05-10 08:39:00,55.5,48.7,29.65,North,-999,-999.0,-999.0,77,-99.99,,,-99.99,tws,2013-05-10 14:39:00,
2013-05-10 08:49:00,56.0,49.1,29.66,North,-999,-999.0,-999.0,77,-99.99,,,-99.99,tws,2013-05-10 14:49:00,
2013-05-10 08:59:00,56.3,49.2,29.65,North,-999,-999.0,-999.0,76,-99.99,,,-99.99,tws,2013-05-10 14:59:00,
2013-05-10 09:09:00,56.7,49.3,29.66,North,-999,-999.0,-999.0,76,-99.99,,,-99.99,tws,2013-05-10 15:09:00,
2013-05-10 09:19:00,57.2,50.1,29.65,North,-999,-999.0,-999.0,76,-99.99,,,-99.99,tws,2013-05-10 15:19:00,
2013-05-10 09:29:00,57.6,49.7,29.66,North,-999,-999.0,-999.0,74,-99.99,,,-99.99,tws,2013-05-10 15:29:00,
2013-05-10 09:39:00,58.0,48.8,29.65,North,-999,-999.0,-999.0,71,-99.99,,,-99.99,tws,2013-05-10 15:39:00,
2013-05-10 09:49:00,58.5,49.1,29.65,North,-999,-999.0,-999.0,70,-99.99,,,-99.99,tws,2013-05-10 15:49:00,
2013-05-10 09:59:00,59.0,49.9,29.66,North,-999,-999.0,-999.0,71,-99.99,,,-99.99,tws,2013-05-10 15:59:00,
2013-05-10 10:09:00,59.2,49.2,29.66,North,-999,-999.0,-999.0,69,-99.99,,,-99.99,tws,2013-05-10 16:09:00,
2013-05-10 10:19:00,59.6,47.9,29.66,North,-999,-999.0,-999.0,65,-99.99,,,-99.99,tws,2013-05-10 16:19:00,
2013-05-10 10:29:00,60.0,48.7,29.66,North,-999,-999.0,-999.0,65,-99.99,,,-99.99,tws,2013-05-10 16:29:00,
2013-05-10 10:39:00,60.6,49.4,29.66,North,-999,-999.0,-999.0,66,-99.99,,,-99.99,tws,2013-05-10 16:39:00,
2013-05-10 10:49:00,60.9,48.4,29.66,North,-999,-999.0,-999.0,63,-99.99,,,-99.99,tws,2013-05-10 16:49:00,
2013-05-10 10:59:00,60.8,46.7,29.66,North,-999,-999.0,-999.0,59,-99.99,,,-99.99,tws,2013-05-10 16:59:00,
2013-05-10 11:09:00,60.9,48.0,29.66,North,-999,-999.0,-999.0,62,-99.99,,,-99.99,tws,2013-05-10 17:09:00,
2013-05-10 11:20:00,61.3,48.4,29.66,North,-999,-999.0,-999.0,62,-99.99,,,-99.99,tws,2013-05-10 17:20:00,
2013-05-10 11:30:00,61.3,48.0,29.66,North,-999,-999.0,-999.0,61,-99.99,,,-99.99,tws,2013-05-10 17:30:00,
2013-05-10 11:40:00,61.9,49.0,29.66,North,-999,-999.0,-999.0,62,-99.99,,,-99.99,tws,2013-05-10 17:40:00,
2013-05-10 11:50:00,62.4,49.1,29.66,North,-999,-999.0,-999.0,61,-99.99,,,-99.99,tws,2013-05-10 17:50:00,
2013-05-10 12:00:00,62.7,49.1,29.66,North,-999,-999.0,-999.0,60,-99.99,,,-99.99,tws,2013-05-10 18:00:00,
2013-05-10 12:10:00,62.6,48.5,29.66,North,-999,-999.0,-999.0,59,-99.99,,,-99.99,tws,2013-05-10 18:10:00,
2013-05-10 12:20:00,62.7,48.2,29.67,North,-999,-999.0,-999.0,58,-99.99,,,-99.99,tws,2013-05-10 18:20:00,
2013-05-10 12:30:00,62.1,50.2,29.67,North,-999,-999.0,-999.0,64,-99.99,,,-99.99,tws,2013-05-10 18:30:00,
2013-05-10 12:39:00,61.4,49.8,29.67,North,-999,-999.0,-999.0,65,-99.99,,,-99.99,tws,2013-05-10 18:39:00,
2013-05-10 12:49:00,60.3,47.9,29.67,North,-999,-999.0,-999.0,63,-99.99,,,-99.99,tws,2013-05-10 18:49:00,
2013-05-10 12:59:00,61.3,48.6,29.67,North,-999,-999.0,-999.0,62,-99.99,,,-99.99,tws,2013-05-10 18:59:00,
2013-05-10 13:09:00,61.9,46.9,29.67,North,-999,-999.0,-999.0,57,-99.99,,,-99.99,tws,2013-05-10 19:09:00,
2013-05-10 13:19:00,60.8,48.4,29.67,North,-999,-999.0,-999.0,63,-99.99,,,-99.99,tws,2013-05-10 19:19:00,
2013-05-10 13:29:00,59.9,48.3,29.67,North,-999,-999.0,-999.0,65,-99.99,,,-99.99,tws,2013-05-10 19:29:00,
2013-05-10 13:39:00,60.5,47.7,29.66,North,-999,-999.0,-999.0,62,-99.99,,,-99.99,tws,2013-05-10 19:39:00,
2013-05-10 13:49:00,61.5,48.2,29.66,North,-999,-999.0,-999.0,61,-99.99,,,-99.99,tws,2013-05-10 19:49:00,
2013-05-10 13:59:00,62.6,48.3,29.66,North,-999,-999.0,-999.0,59,-99.99,,,-99.99,tws,2013-05-10 19:59:00,
2013-05-10 14:09:00,63.3,47.8,29.66,North,-999,-999.0,-999.0,56,-99.99,,,-99.99,tws,2013-05-10 20:09:00,
2013-05-10 14:19:00,63.1,47.2,29.66,North,-999,-999.0,-999.0,55,-99.99,,,-99.99,tws,2013-05-10 20:19:00,
2013-05-10 14:29:00,62.5,46.4,29.66,North,-999,-999.0,-999.0,55,-99.99,,,-99.99,tws,2013-05-10 20:29:00,
2013-05-10 14:39:00,63.4,46.5,29.66,North,-999,-999.0,-999.0,53,-99.99,,,-99.99,tws,2013-05-10 20:39:00,
2013-05-10 14:49:00,63.6,47.0,29.65,North,-999,-999.0,-999.0,54,-99.99,,,-99.99,tws,2013-05-10 20:49:00,
2013-05-10 14:59:00,63.7,47.1,29.65,North,-999,-999.0,-999.0,54,-99.99,,,-99.99,tws,2013-05-10 20:59:00,
2013-05-10 15:09:00,64.2,47.9,29.65,North,-999,-999.0,-999.0,54,-99.99,,,-99.99,tws,2013-05-10 21:09:00,
2013-05-10 15:19:00,64.8,48.3,29.64,North,-999,-999.0,-999.0,54,-99.99,,,-99.99,tws,2013-05-10 21:19:00,
2013-05-10 15:29:00,65.4,47.9,29.64,North,-999,-999.0,-999.0,52,-99.99,,,-99.99,tws,2013-05-10 21:29:00,
2013-05-10 15:39:00,65.4,47.9,29.64,North,-999,-999.0,-999.0,52,-99.99,,,-99.99,tws,2013-05-10 21:39:00,
2013-05-10 15:49:00,65.5,46.8,29.64,North,-999,-999.0,-999.0,50,-99.99,,,-99.99,tws,2013-05-10 21:49:00,
2013-05-10 15:59:00,65.5,46.7,29.64,North,-999,-999.0,-999.0,50,-99.99,,,-99.99,tws,2013-05-10 21:59:00,
2013-05-10 16:09:00,65.3,46.3,29.63,North,-999,-999.0,-999.0,49,-99.99,,,-99.99,tws,2013-05-10 22:09:00,
2013-05-10 16:19:00,65.3,45.8,29.64,North,-999,-999.0,-999.0,48,-99.99,,,-99.99,tws,2013-05-10 22:19:00,
2013-05-10 16:29:00,65.4,44.5,29.63,North,-999,-999.0,-999.0,46,-99.99,,,-99.99,tws,2013-05-10 22:29:00,
2013-05-10 16:39:00,65.8,44.4,29.63,North,-999,-999.0,-999.0,45,-99.99,,,-99.99,tws,2013-05-10 22:39:00,
2013-05-10 16:49:00,66.0,44.8,29.63,North,-999,-999.0,-999.0,45,-99.99,,,-99.99,tws,2013-05-10 22:49:00,
2013-05-10 16:59:00,66.1,44.0,29.63,North,-999,-999.0,-999.0,44,-99.99,,,-99.99,tws,2013-05-10 22:59:00,
2013-05-10 17:09:00,66.2,43.9,29.63,North,-999,-999.0,-999.0,43,-99.99,,,-99.99,tws,2013-05-10 23:09:00,
2013-05-10 17:19:00,66.1,43.3,29.63,North,-999,-999.0,-999.0,43,-99.99,,,-99.99,tws,2013-05-10 23:19:00,
2013-05-10 17:29:00,66.0,43.3,29.64,North,-999,-999.0,-999.0,43,-99.99,,,-99.99,tws,2013-05-10 23:29:00,
2013-05-10 17:39:00,65.9,44.0,29.64,North,-999,-999.0,-999.0,44,-99.99,,,-99.99,tws,2013-05-10 23:39:00,
2013-05-10 17:49:00,65.1,45.1,29.64,North,-999,-999.0,-999.0,47,-99.99,,,-99.99,tws,2013-05-10 23:49:00,
2013-05-10 17:59:00,65.6,45.2,29.64,North,-999,-999.0,-999.0,47,-99.99,,,-99.99,tws,2013-05-10 23:59:00,
2013-05-10 18:09:00,65.0,46.0,29.64,North,-999,-999.0,-999.0,49,-99.99,,,-99.99,tws,2013-05-11 00:09:00,
2013-05-10 18:19:00,64.6,46.5,29.64,North,-999,-999.0,-999.0,51,-99.99,,,-99.99,tws,2013-05-11 00:19:00,
2013-05-10 18:29:00,64.6,47.0,29.64,North,-999,-999.0,-999.0,52,-99.99,,,-99.99,tws,2013-05-11 00:29:00,
2013-05-10 18:39:00,65.3,47.3,29.65,North,-999,-999.0,-999.0,51,-99.99,,,-99.99,tws,2013-05-11 00:39:00,
2013-05-10 18:49:00,65.6,46.6,29.65,North,-999,-999.0,-999.0,49,-99.99,,,-99.99,tws,2013-05-11 00:49:00,
2013-05-10 18:59:00,65.3,45.3,29.66,North,-999,-999.0,-999.0,47,-99.99,,,-99.99,tws,2013-05-11 00:59:00,
2013-05-10 19:09:00,64.9,45.1,29.66,North,-999,-999.0,-999.0,48,-99.99,,,-99.99,tws,2013-05-11 01:09:00,
2013-05-10 19:19:00,64.8,45.5,29.66,North,-999,-999.0,-999.0,49,-99.99,,,-99.99,tws,2013-05-11 01:19:00,
2013-05-10 19:29:00,64.4,45.5,29.66,North,-999,-999.0,-999.0,49,-99.99,,,-99.99,tws,2013-05-11 01:29:00,
2013-05-10 19:39:00,63.9,45.0,29.67,North,-999,-999.0,-999.0,49,-99.99,,,-99.99,tws,2013-05-11 01:39:00,
2013-05-10 19:49:00,63.2,45.5,29.67,North,-999,-999.0,-999.0,52,-99.99,,,-99.99,tws,2013-05-11 01:49:00,
2013-05-10 19:59:00,63.0,45.5,29.66,North,-999,-999.0,-999.0,52,-99.99,,,-99.99,tws,2013-05-11 01:59:00,
2013-05-10 20:09:00,62.8,45.8,29.66,North,-999,-999.0,-999.0,53,-99.99,,,-99.99,tws,2013-05-11 02:09:00,
2013-05-10 20:19:00,61.8,45.5,29.67,North,-999,-999.0,-999.0,54,-99.99,,,-99.99,tws,2013-05-11 02:19:00,
2013-05-10 20:29:00,61.2,45.3,29.67,North,-999,-999.0,-999.0,55,-99.99,,,-99.99,tws,2013-05-11 02:29:00,
2013-05-10 20:39:00,60.7,45.1,29.67,North,-999,-999.0,-999.0,56,-99.99,,,-99.99,tws,2013-05-11 02:39:00,
2013-05-10 20:49:00,60.7,44.7,29.68,North,-999,-999.0,-999.0,55,-99.99,,,-99.99,tws,2013-05-11 02:49:00,
2013-05-10 20:59:00,60.3,44.4,29.68,North,-999,-999.0,-999.0,55,-99.99,,,-99.99,tws,2013-05-11 02:59:00,
2013-05-10 21:09:00,59.9,44.2,29.69,North,-999,-999.0,-999.0,55,-99.99,,,-99.99,tws,2013-05-11 03:09:00,
2013-05-10 21:19:00,59.7,44.0,29.69,North,-999,-999.0,-999.0,55,-99.99,,,-99.99,tws,2013-05-11 03:19:00,
2013-05-10 21:29:00,59.3,44.0,29.70,North,-999,-999.0,-999.0,56,-99.99,,,-99.99,tws,2013-05-11 03:29:00,
2013-05-10 21:39:00,59.5,44.1,29.70,North,-999,-999.0,-999.0,56,-99.99,,,-99.99,tws,2013-05-11 03:39:00,
2013-05-10 21:49:00,59.5,44.0,29.70,North,-999,-999.0,-999.0,56,-99.99,,,-99.99,tws,2013-05-11 03:49:00,
2013-05-10 21:59:00,59.5,43.8,29.71,North,-999,-999.0,-999.0,55,-99.99,,,-99.99,tws,2013-05-11 03:59:00,
2013-05-10 22:09:00,59.7,43.5,29.71,North,-999,-999.0,-999.0,54,-99.99,,,-99.99,tws,2013-05-11 04:09:00,
2013-05-10 22:19:00,59.8,43.3,29.71,North,-999,-999.0,-999.0,54,-99.99,,,-99.99,tws,2013-05-11 04:19:00,
2013-05-10 22:29:00,59.8,43.1,29.72,North,-999,-999.0,-999.0,53,-99.99,,,-99.99,tws,2013-05-11 04:29:00,
2013-05-10 22:39:00,60.0,42.6,29.72,North,-999,-999.0,-999.0,52,-99.99,,,-99.99,tws,2013-05-11 04:39:00,
2013-05-10 22:49:00,60.6,42.6,29.72,North,-999,-999.0,-999.0,51,-99.99,,,-99.99,tws,2013-05-11 04:49:00,
2013-05-10 22:59:00,59.9,42.7,29.73,North,-999,-999.0,-999.0,52,-99.99,,,-99.99,tws,2013-05-11 04:59:00,
2013-05-10 23:09:00,59.1,42.5,29.73,North,-999,-999.0,-999.0,53,-99.99,,,-99.99,tws,2013-05-11 05:09:00,
2013-05-10 23:19:00,58.8,42.6,29.73,North,-999,-999.0,-999.0,54,-99.99,,,-99.99,tws,2013-05-11 05:19:00,
2013-05-10 23:29:00,57.9,42.5,29.73,North,-999,-999.0,-999.0,56,-99.99,,,-99.99,tws,2013-05-11 05:29:00,
2013-05-10 23:39:00,57.3,42.2,29.74,North,-999,-999.0,-999.0,56,-99.99,,,-99.99,tws,2013-05-11 05:39:00,
2013-05-10 23:49:00,57.3,42.3,29.74,North,-999,-999.0,-999.0,57,-99.99,,,-99.99,tws,2013-05-11 05:49:00,
2013-05-10 23:59:00,57.3,42.2,29.75,North,-999,-999.0,-999.0,56,-99.99,,,-99.99,tws,2013-05-11 05:59:00,